Location: Albany
(35.0000°S, 118.0000°E)
Time: 05:12:29
(UTC-05:00)

Cosmos 1626 - Visible Passes

Search period start: 01 February 2015 00:00
Search period end: 11 February 2015 00:00
Orbit: 511 x 515 km, 82.5° (Epoch: 30 January)

Date Brightness Start Highest point End Pass type
(mag) Time Alt. Az. Time Alt. Az. Time Alt. Az.
04 Feb 4.6 15:53:23 10° NNE 15:56:35 26° E 15:59:54 10° SSE visible
05 Feb 4.9 15:37:50 10° NE 15:40:42 21° E 15:43:42 10° SE visible
06 Feb 5.1 15:22:23 10° NE 15:24:48 17° E 15:27:23 10° SE visible
07 Feb 5.3 15:07:08 10° ENE 15:08:54 13° E 15:10:53 10° ESE visible
08 Feb 5.6 14:52:31 10° E 14:53:00 10° E 14:53:44 10° ESE visible
10 Feb 2.2 15:52:30 10° NNW 15:56:18 67° W 16:00:11 10° S visible
